RYS3090 LGKR-EPKT

Flight info

Callsign RYS3090
Flight time 1h 50m
Altitude 36000
Route NIKRO M127 OVVER DCT ALELU DCT RISTU DCT PARAK DCT LITKU DCT REDSI DCT MEBAN
Aircraft B738/M-SDE2E3FGHIRWXY/LB1

Departure

Time 2026-04-27 16:16
Airport Corfu Ioannis Kapodistrias International Airport (LGKR)

Arrival

Time 2026-04-27 18:06
Airport Katowice Wojciech Korfanty International Airport (EPKT)
Time Latitude Longitude Altitude Speed Heading
2026-04-27 15:51 39.60790 19.91337 7 ft 0 kts 79°
2026-04-27 16:04 39.60789 19.91328 7 ft 2 kts 79°
2026-04-27 16:04 39.60785 19.91307 7 ft 2 kts 79°
2026-04-27 16:04 39.60782 19.91286 10 ft 2 kts 79°
2026-04-27 16:05 39.60779 19.91265 8 ft 2 kts 80°
2026-04-27 16:05 39.60777 19.91244 8 ft 2 kts 81°
2026-04-27 16:05 39.60775 19.91223 7 ft 2 kts 86°
2026-04-27 16:05 39.60776 19.91201 6 ft 2 kts 126°
2026-04-27 16:06 39.60784 19.91194 9 ft 1 kts 167°
2026-04-27 16:12 39.60783 19.91194 6 ft 0 kts 167°
2026-04-27 16:12 39.60783 19.91203 8 ft 1 kts 83°
2026-04-27 16:13 39.60786 19.91205 9 ft 1 kts 45°
2026-04-27 16:13 39.60828 19.91187 6 ft 9 kts 342°
2026-04-27 16:13 39.60911 19.91159 7 ft 15 kts 347°
2026-04-27 16:14 39.61122 19.91102 7 ft 15 kts 348°
2026-04-27 16:14 39.61179 19.91086 8 ft 0 kts 339°
2026-04-27 16:15 39.61190 19.91076 8 ft 6 kts 322°
2026-04-27 16:15 39.61086 19.90983 5 ft 45 kts 169°
2026-04-27 16:16 39.59450 19.91415 74 ft 180 kts 169°
2026-04-27 16:16 39.57225 19.92747 1731 ft 194 kts 118°
2026-04-27 16:17 39.55650 19.95893 2772 ft 221 kts 143°
2026-04-27 16:17 39.53234 19.98333 4278 ft 221 kts 143°
2026-04-27 16:18 39.52098 20.01836 5636 ft 230 kts 76°
2026-04-27 16:18 39.54178 20.04857 6964 ft 236 kts 27°
2026-04-27 16:19 39.55679 20.05749 7637 ft 238 kts 24°
2026-04-27 16:19 39.57212 20.06599 8274 ft 240 kts 24°
2026-04-27 16:20 39.61852 20.09238 10237 ft 245 kts 25°
2026-04-27 16:20 39.63402 20.10140 10812 ft 248 kts 24°
2026-04-27 16:20 39.66653 20.11881 12095 ft 255 kts
2026-04-27 16:21 39.68461 20.11872 12531 ft 270 kts 354°
2026-04-27 16:21 39.74820 20.11056 13107 ft 340 kts 353°
2026-04-27 16:22 39.77236 20.10741 13570 ft 353 kts 353°
2026-04-27 16:22 39.82140 20.10124 15012 ft 358 kts 353°
2026-04-27 16:22 39.84627 20.09817 15730 ft 360 kts 353°
2026-04-27 16:23 39.87137 20.09510 16412 ft 363 kts 353°
2026-04-27 16:23 39.92223 20.08889 17803 ft 370 kts 353°
2026-04-27 16:23 39.94803 20.08575 18472 ft 373 kts 353°
2026-04-27 16:24 39.97405 20.08257 19056 ft 376 kts 353°
2026-04-27 16:24 40.02664 20.07616 20246 ft 382 kts 353°
2026-04-27 16:25 40.07956 20.06969 21378 ft 387 kts 353°
2026-04-27 16:25 40.13384 20.06304 22415 ft 394 kts 352°
2026-04-27 16:26 40.18884 20.05630 23557 ft 399 kts 352°
2026-04-27 16:26 40.24408 20.04951 24399 ft 405 kts 352°
2026-04-27 16:27 40.30062 20.04255 25261 ft 409 kts 352°
2026-04-27 16:27 40.38652 20.03196 26540 ft 417 kts 352°
2026-04-27 16:28 40.44435 20.02482 27314 ft 422 kts 352°
2026-04-27 16:28 40.50316 20.01755 28028 ft 426 kts 352°
2026-04-27 16:29 40.59273 20.00781 29141 ft 433 kts 354°
2026-04-27 16:30 40.65292 20.00324 29777 ft 438 kts 354°
2026-04-27 16:30 40.71415 19.99858 30445 ft 440 kts 354°
2026-04-27 16:31 40.80528 19.99130 31661 ft 435 kts 353°
2026-04-27 16:31 40.86544 19.98636 32321 ft 435 kts 353°
2026-04-27 16:32 40.92567 19.98141 33086 ft 432 kts 353°
2026-04-27 16:32 40.95572 19.97894 33417 ft 432 kts 353°
2026-04-27 16:33 41.01570 19.97399 34090 ft 430 kts 353°
2026-04-27 16:33 41.04559 19.97153 34376 ft 429 kts 353°
2026-04-27 16:33 41.07504 19.96910 34617 ft 430 kts 353°
2026-04-27 16:33 41.10503 19.96661 34853 ft 430 kts 353°
2026-04-27 16:34 41.13499 19.96414 35107 ft 430 kts 353°
2026-04-27 16:34 41.16483 19.96167 35384 ft 429 kts 353°
2026-04-27 16:34 41.19462 19.95920 35612 ft 429 kts 353°
2026-04-27 16:34 41.22410 19.95675 35852 ft 429 kts 353°
2026-04-27 16:35 41.25386 19.95428 36060 ft 429 kts 353°
2026-04-27 16:35 41.28391 19.95177 36039 ft 433 kts 353°
2026-04-27 16:36 41.37393 19.94430 36044 ft 426 kts 353°
2026-04-27 16:36 41.43278 19.93940 36061 ft 426 kts 353°
2026-04-27 16:37 41.49218 19.93441 36061 ft 428 kts 353°
2026-04-27 16:37 41.55183 19.92941 36060 ft 430 kts 353°
2026-04-27 16:38 41.61158 19.92440 36060 ft 431 kts 353°
2026-04-27 16:38 41.67121 19.91939 36055 ft 431 kts 353°
2026-04-27 16:39 41.73122 19.91434 36057 ft 431 kts 353°
2026-04-27 16:39 41.79112 19.90929 36060 ft 431 kts 353°
2026-04-27 16:40 41.85098 19.90423 36055 ft 430 kts 353°
2026-04-27 16:40 41.91078 19.89917 36062 ft 430 kts 353°
2026-04-27 16:41 41.97011 19.89414 36064 ft 429 kts 353°
2026-04-27 16:41 42.02970 19.88907 36066 ft 429 kts 353°
2026-04-27 16:42 42.08845 19.88407 36065 ft 428 kts 353°
2026-04-27 16:42 42.14756 19.87903 36076 ft 427 kts 353°
2026-04-27 16:43 42.20693 19.87395 36071 ft 427 kts 353°
2026-04-27 16:43 42.26616 19.86888 36079 ft 425 kts 353°
2026-04-27 16:44 42.32526 19.86381 36094 ft 426 kts 353°
2026-04-27 16:44 42.38447 19.85872 36097 ft 426 kts 353°
2026-04-27 16:45 42.44344 19.85364 36098 ft 428 kts 354°
2026-04-27 16:45 42.50316 19.85085 36107 ft 431 kts 359°
2026-04-27 16:46 42.56323 19.85535 36104 ft 433 kts
2026-04-27 16:46 42.62326 19.86080 36106 ft 433 kts
2026-04-27 16:47 42.68357 19.86583 36089 ft 434 kts
2026-04-27 16:47 42.74392 19.87053 36091 ft 434 kts
2026-04-27 16:48 42.80422 19.87511 36088 ft 433 kts
2026-04-27 16:48 42.86408 19.87964 36093 ft 432 kts
2026-04-27 16:49 42.95406 19.88649 36094 ft 430 kts
2026-04-27 16:49 43.01391 19.89105 36076 ft 429 kts
2026-04-27 16:50 43.07313 19.89558 36086 ft 428 kts
2026-04-27 16:50 43.13261 19.90014 36095 ft 427 kts
2026-04-27 16:51 43.19203 19.90470 36089 ft 427 kts
2026-04-27 16:51 43.25111 19.90924 36096 ft 426 kts
2026-04-27 16:52 43.31032 19.91380 36099 ft 426 kts
2026-04-27 16:52 43.36971 19.91838 36106 ft 427 kts
2026-04-27 16:53 43.42880 19.92295 36098 ft 427 kts
2026-04-27 16:53 43.48835 19.92757 36115 ft 428 kts
2026-04-27 16:54 43.54795 19.93219 36112 ft 429 kts
2026-04-27 16:54 43.60760 19.93684 36103 ft 429 kts
2026-04-27 16:55 43.66695 19.94147 36119 ft 430 kts
2026-04-27 16:55 43.72690 19.94615 36107 ft 430 kts
2026-04-27 16:56 43.78641 19.95081 36107 ft 430 kts
2026-04-27 16:56 43.84617 19.95550 36104 ft 430 kts
2026-04-27 16:57 43.90596 19.96020 36120 ft 429 kts
2026-04-27 16:57 43.96514 19.96487 36114 ft 428 kts
2026-04-27 16:58 44.02475 19.96957 36118 ft 428 kts
2026-04-27 16:58 44.07429 19.97348 36127 ft 428 kts
2026-04-27 16:59 44.13379 19.97820 36126 ft 428 kts
2026-04-27 16:59 44.20294 19.98369 36125 ft 428 kts
2026-04-27 17:00 44.28224 19.99000 36121 ft 428 kts
2026-04-27 17:01 44.34163 19.99473 36133 ft 427 kts
2026-04-27 17:01 44.40113 19.99949 36133 ft 427 kts
2026-04-27 17:02 44.45974 20.00419 36136 ft 428 kts
2026-04-27 17:02 44.51889 20.00893 36124 ft 428 kts
2026-04-27 17:03 44.57861 20.01374 36152 ft 429 kts
2026-04-27 17:03 44.63786 20.01851 36145 ft 429 kts
2026-04-27 17:04 44.69771 20.02335 36136 ft 430 kts
2026-04-27 17:04 44.75744 20.02818 36141 ft 430 kts
2026-04-27 17:05 44.81661 20.03147 36136 ft 429 kts 359°
2026-04-27 17:05 44.87663 20.03390 36140 ft 429 kts 359°
2026-04-27 17:06 44.93636 20.03642 36132 ft 429 kts 359°
2026-04-27 17:06 44.99573 20.03908 36141 ft 428 kts 359°
2026-04-27 17:07 45.05537 20.04183 36137 ft 427 kts 359°
2026-04-27 17:07 45.11451 20.04458 36143 ft 427 kts 359°
2026-04-27 17:08 45.17392 20.04734 36144 ft 426 kts 359°
2026-04-27 17:08 45.23324 20.05010 36150 ft 426 kts 359°
2026-04-27 17:09 45.29250 20.05286 36153 ft 425 kts 359°
2026-04-27 17:09 45.35161 20.05562 36160 ft 425 kts 359°
2026-04-27 17:10 45.41044 20.05838 36155 ft 424 kts 359°
2026-04-27 17:10 45.46932 20.06114 36159 ft 424 kts 359°
2026-04-27 17:11 45.52827 20.06391 36158 ft 423 kts 359°
2026-04-27 17:11 45.61651 20.06807 36161 ft 423 kts 359°
2026-04-27 17:12 45.70473 20.07224 36164 ft 422 kts 359°
2026-04-27 17:13 45.76308 20.07501 36160 ft 422 kts 358°
2026-04-27 17:13 45.82185 20.07780 36164 ft 422 kts 358°
2026-04-27 17:14 45.88057 20.08059 36163 ft 421 kts 358°
2026-04-27 17:14 45.93887 20.08337 36167 ft 421 kts 358°
2026-04-27 17:15 45.99758 20.08618 36162 ft 421 kts 358°
2026-04-27 17:15 46.05595 20.08898 36172 ft 421 kts 358°
2026-04-27 17:16 46.11440 20.08690 36174 ft 418 kts 352°
2026-04-27 17:16 46.17223 20.07907 36171 ft 417 kts 351°
2026-04-27 17:17 46.22983 20.07104 36162 ft 417 kts 351°
2026-04-27 17:17 46.28776 20.06347 36171 ft 417 kts 351°
2026-04-27 17:18 46.37456 20.05261 36178 ft 417 kts 351°
2026-04-27 17:18 46.43242 20.04542 36166 ft 416 kts 351°
2026-04-27 17:19 46.48984 20.03828 36169 ft 416 kts 351°
2026-04-27 17:19 46.54757 20.03108 36166 ft 416 kts 351°
2026-04-27 17:20 46.60502 20.02389 36172 ft 415 kts 351°
2026-04-27 17:20 46.66260 20.01667 36168 ft 415 kts 351°
2026-04-27 17:21 46.72020 20.00943 36172 ft 414 kts 351°
2026-04-27 17:21 46.77735 20.00223 36165 ft 414 kts 351°
2026-04-27 17:22 46.83475 19.99499 36165 ft 414 kts 351°
2026-04-27 17:22 46.89220 19.98773 36162 ft 413 kts 351°
2026-04-27 17:23 46.94915 19.98051 36167 ft 413 kts 351°
2026-04-27 17:23 47.00629 19.97325 36163 ft 412 kts 351°
2026-04-27 17:24 47.06352 19.96597 36170 ft 412 kts 351°
2026-04-27 17:24 47.12029 19.95873 36162 ft 412 kts 351°
2026-04-27 17:25 47.17734 19.95143 36169 ft 411 kts 351°
2026-04-27 17:25 47.23446 19.94411 36170 ft 411 kts 351°
2026-04-27 17:26 47.29117 19.93683 36170 ft 411 kts 351°
2026-04-27 17:26 47.34805 19.92951 36280 ft 406 kts 352°
2026-04-27 17:27 47.40344 19.92242 36172 ft 393 kts 351°
2026-04-27 17:27 47.45749 19.91543 36170 ft 391 kts 351°
2026-04-27 17:28 47.51186 19.90837 36171 ft 391 kts 351°
2026-04-27 17:29 47.59305 19.89781 36171 ft 392 kts 351°
2026-04-27 17:29 47.64765 19.89069 36173 ft 394 kts 351°
2026-04-27 17:30 47.70211 19.88359 36170 ft 395 kts 351°
2026-04-27 17:30 47.78466 19.87279 36165 ft 398 kts 351°
2026-04-27 17:31 47.83992 19.86555 36165 ft 399 kts 351°
2026-04-27 17:31 47.89507 19.85831 36155 ft 399 kts 351°
2026-04-27 17:32 47.97822 19.84735 36158 ft 400 kts 351°
2026-04-27 17:33 48.03344 19.84006 36160 ft 400 kts 351°
2026-04-27 17:33 48.08888 19.83273 36157 ft 399 kts 351°
2026-04-27 17:34 48.14422 19.82539 36153 ft 399 kts 351°
2026-04-27 17:34 48.19953 19.81803 36148 ft 398 kts 351°
2026-04-27 17:35 48.25465 19.81069 36143 ft 397 kts 351°
2026-04-27 17:35 48.30955 19.80336 36150 ft 396 kts 351°
2026-04-27 17:36 48.36404 19.79607 36144 ft 394 kts 351°
2026-04-27 17:36 48.41872 19.78874 36142 ft 394 kts 351°
2026-04-27 17:37 48.47335 19.78139 36139 ft 393 kts 351°
2026-04-27 17:37 48.52760 19.77408 36150 ft 392 kts 351°
2026-04-27 17:38 48.58213 19.76672 36150 ft 393 kts 351°
2026-04-27 17:38 48.63665 19.75935 36156 ft 393 kts 351°
2026-04-27 17:39 48.69079 19.75201 36158 ft 393 kts 351°
2026-04-27 17:39 48.74466 19.74472 36157 ft 385 kts 350°
2026-04-27 17:40 48.79766 19.73751 36163 ft 381 kts 350°
2026-04-27 17:40 48.82419 19.73387 35864 ft 382 kts 350°
2026-04-27 17:40 48.85046 19.73030 35575 ft 376 kts 350°
2026-04-27 17:40 48.87632 19.72679 35238 ft 370 kts 350°
2026-04-27 17:41 48.90186 19.72331 34857 ft 367 kts 350°
2026-04-27 17:41 48.92720 19.71983 34501 ft 364 kts 350°
2026-04-27 17:41 48.95237 19.71638 34126 ft 361 kts 350°
2026-04-27 17:41 48.97728 19.71296 33697 ft 358 kts 350°
2026-04-27 17:42 49.00191 19.70958 33356 ft 353 kts 349°
2026-04-27 17:42 49.02599 19.70627 32974 ft 350 kts 349°
2026-04-27 17:42 49.05010 19.70296 32622 ft 346 kts 349°
2026-04-27 17:42 49.07401 19.69966 32276 ft 343 kts 349°
2026-04-27 17:43 49.09770 19.69639 31907 ft 340 kts 349°
2026-04-27 17:43 49.12126 19.69313 31560 ft 337 kts 349°
2026-04-27 17:43 49.14454 19.68991 31220 ft 334 kts 349°
2026-04-27 17:43 49.16735 19.68675 30878 ft 332 kts 349°
2026-04-27 17:44 49.18254 19.68465 30669 ft 330 kts 349°
2026-04-27 17:44 49.20538 19.68148 30323 ft 329 kts 349°
2026-04-27 17:44 49.22785 19.67835 29960 ft 327 kts 349°
2026-04-27 17:45 49.25042 19.67522 29597 ft 325 kts 349°
2026-04-27 17:45 49.27287 19.67211 29254 ft 321 kts 349°
2026-04-27 17:45 49.29505 19.66903 28910 ft 317 kts 349°
2026-04-27 17:45 49.31695 19.66598 28554 ft 315 kts 349°
2026-04-27 17:46 49.33862 19.66296 28247 ft 310 kts 349°
2026-04-27 17:46 49.36008 19.65996 27882 ft 308 kts 349°
2026-04-27 17:46 49.38123 19.65700 27552 ft 307 kts 349°
2026-04-27 17:46 49.40253 19.65402 27215 ft 306 kts 349°
2026-04-27 17:47 49.42382 19.65105 26882 ft 309 kts 350°
2026-04-27 17:47 49.43083 19.65057 26771 ft 314 kts 356°
2026-04-27 17:47 49.46731 19.66850 26200 ft 350 kts 28°
2026-04-27 17:47 49.48573 19.69388 25853 ft 357 kts 38°
2026-04-27 17:48 49.50262 19.72125 25491 ft 357 kts 40°
2026-04-27 17:48 49.51940 19.74935 25135 ft 355 kts 40°
2026-04-27 17:48 49.53609 19.77729 24780 ft 353 kts 39°
2026-04-27 17:48 49.54825 19.79314 24470 ft 338 kts 23°
2026-04-27 17:49 49.56964 19.80430 23893 ft 320 kts
2026-04-27 17:49 49.59160 19.80418 23248 ft 311 kts 346°
2026-04-27 17:49 49.61247 19.79646 22620 ft 306 kts 340°
2026-04-27 17:49 49.63282 19.78697 22035 ft 303 kts 339°
2026-04-27 17:50 49.65294 19.77718 21472 ft 301 kts 339°
2026-04-27 17:50 49.69097 19.75866 20404 ft 297 kts 339°
2026-04-27 17:50 49.71067 19.74917 19857 ft 296 kts 340°
2026-04-27 17:51 49.73035 19.73974 19337 ft 294 kts 340°
2026-04-27 17:51 49.74983 19.73046 18842 ft 292 kts 340°
2026-04-27 17:51 49.76919 19.72125 18320 ft 290 kts 340°
2026-04-27 17:51 49.78846 19.71209 17750 ft 288 kts 340°
2026-04-27 17:52 49.80756 19.70302 17193 ft 286 kts 340°
2026-04-27 17:52 49.82635 19.69410 16672 ft 284 kts 340°
2026-04-27 17:52 49.84519 19.68516 16154 ft 282 kts 340°
2026-04-27 17:52 49.86400 19.67623 15624 ft 281 kts 340°
2026-04-27 17:53 49.88267 19.66735 15125 ft 279 kts 341°
2026-04-27 17:53 49.89845 19.65985 14708 ft 278 kts 341°
2026-04-27 17:53 49.91689 19.65108 14226 ft 276 kts 341°
2026-04-27 17:53 49.93375 19.64305 13758 ft 275 kts 341°
2026-04-27 17:54 49.95194 19.63438 13240 ft 272 kts 341°
2026-04-27 17:54 49.96981 19.62586 12740 ft 270 kts 341°
2026-04-27 17:54 49.98773 19.61731 12232 ft 269 kts 341°
2026-04-27 17:54 49.99992 19.61150 11890 ft 268 kts 341°
2026-04-27 17:55 50.01670 19.60348 11428 ft 266 kts 341°
2026-04-27 17:55 50.03424 19.59509 11058 ft 260 kts 341°
2026-04-27 17:55 50.05123 19.58697 10765 ft 257 kts 341°
2026-04-27 17:55 50.06833 19.57878 10466 ft 257 kts 341°
2026-04-27 17:56 50.08536 19.57062 10306 ft 255 kts 341°
2026-04-27 17:56 50.10236 19.56247 10188 ft 257 kts 341°
2026-04-27 17:56 50.11973 19.55412 9776 ft 264 kts 341°
2026-04-27 17:56 50.13722 19.54572 9470 ft 262 kts 341°
2026-04-27 17:57 50.15465 19.53735 9150 ft 261 kts 341°
2026-04-27 17:57 50.17199 19.52901 8847 ft 260 kts 341°
2026-04-27 17:57 50.18925 19.52070 8520 ft 260 kts 341°
2026-04-27 17:57 50.20668 19.51231 8111 ft 262 kts 341°
2026-04-27 17:58 50.22387 19.50402 7777 ft 255 kts 341°
2026-04-27 17:58 50.24049 19.49601 7498 ft 252 kts 341°
2026-04-27 17:58 50.25722 19.48793 7199 ft 252 kts 341°
2026-04-27 17:58 50.27397 19.47984 6910 ft 251 kts 341°
2026-04-27 17:59 50.29071 19.47174 6614 ft 251 kts 341°
2026-04-27 17:59 50.30721 19.46375 6303 ft 251 kts 342°
2026-04-27 17:59 50.32382 19.45571 6074 ft 248 kts 342°
2026-04-27 17:59 50.34027 19.44774 5944 ft 247 kts 342°
2026-04-27 18:00 50.35706 19.43959 5472 ft 254 kts 342°
2026-04-27 18:00 50.37403 19.43136 5187 ft 252 kts 342°
2026-04-27 18:00 50.39049 19.42337 5070 ft 244 kts 342°
2026-04-27 18:00 50.40653 19.41558 4955 ft 234 kts 342°
2026-04-27 18:01 50.42127 19.40842 4828 ft 216 kts 342°
2026-04-27 18:01 50.43507 19.40171 4695 ft 199 kts 342°
2026-04-27 18:01 50.44796 19.39543 4563 ft 189 kts 342°
2026-04-27 18:01 50.46035 19.38931 4471 ft 189 kts 338°
2026-04-27 18:02 50.47066 19.37666 4229 ft 189 kts 304°
2026-04-27 18:02 50.47469 19.35766 4054 ft 182 kts 275°
2026-04-27 18:02 50.47500 19.33829 3983 ft 175 kts 276°
2026-04-27 18:02 50.47557 19.31932 3808 ft 178 kts 274°
2026-04-27 18:03 50.47575 19.29987 3566 ft 177 kts 272°
2026-04-27 18:03 50.47577 19.28104 3343 ft 167 kts 273°
2026-04-27 18:03 50.47577 19.26329 3113 ft 160 kts 273°
2026-04-27 18:03 50.47578 19.24594 2903 ft 159 kts 273°
2026-04-27 18:04 50.47579 19.22849 2691 ft 158 kts 273°
2026-04-27 18:04 50.47580 19.21166 2463 ft 152 kts 273°
2026-04-27 18:04 50.47582 19.19535 2264 ft 150 kts 273°
2026-04-27 18:04 50.47584 19.17889 2062 ft 151 kts 272°
2026-04-27 18:05 50.47584 19.16236 1845 ft 151 kts 273°
2026-04-27 18:05 50.47588 19.14580 1590 ft 152 kts 272°
2026-04-27 18:05 50.47591 19.12932 1349 ft 151 kts 272°
2026-04-27 18:05 50.47595 19.11280 1127 ft 151 kts 271°
2026-04-27 18:06 50.47596 19.09642 985 ft 145 kts 271°
2026-04-27 18:06 50.47597 19.08204 973 ft 115 kts 270°
2026-04-27 18:06 50.47596 19.07137 964 ft 80 kts 270°
2026-04-27 18:06 50.47601 19.06457 956 ft 46 kts 271°
2026-04-27 18:07 50.47605 19.06148 954 ft 14 kts 271°
2026-04-27 18:07 50.47572 19.05992 956 ft 16 kts 213°
2026-04-27 18:07 50.47465 19.05985 953 ft 15 kts 160°
2026-04-27 18:07 50.47428 19.06124 955 ft 15 kts 77°
2026-04-27 18:08 50.47430 19.06282 955 ft 14 kts 90°
2026-04-27 18:08 50.47430 19.06433 956 ft 13 kts 90°
2026-04-27 18:08 50.47424 19.06575 957 ft 13 kts 115°
2026-04-27 18:08 50.47347 19.06625 959 ft 13 kts 179°
2026-04-27 18:09 50.47261 19.06641 959 ft 12 kts 149°
2026-04-27 18:09 50.47236 19.06763 964 ft 12 kts 91°
2026-04-27 18:09 50.47236 19.06893 963 ft 12 kts 89°
2026-04-27 18:09 50.47237 19.07021 961 ft 12 kts 91°
2026-04-27 18:10 50.47236 19.07145 964 ft 11 kts 90°
2026-04-27 18:10 50.47236 19.07231 962 ft 0 kts 89°
2026-04-27 18:10 50.47236 19.07233 962 ft 1 kts 90°
2026-04-27 18:10 50.47230 19.07262 969 ft 5 kts 127°
2026-04-27 18:11 50.47189 19.07279 963 ft 7 kts 180°
2026-04-27 18:11 50.47177 19.07279 964 ft 0 kts 180°